Regional Weather Roundup
Issued by NWS State College, PA

Home | Current Version | Previous Version | Text Only | Print | Product List | Glossary Off
Versions: 1 2 3 4 5 6 7 8 9 10 11 12 13 14 15 16 17 18 19 20 21 22 23 24 25 26 27 28 29 30 31 32 33 34 35 36 37 38 39 40 41 42 43 44 45 46 47 48 49 50

000
ASUS41 KCTP 290703
RWRCTP

REGIONAL WEATHER ROUNDUP
NATIONAL WEATHER SERVICE STATE COLLEGE PA
300 AM EDT MON AUG 29 2016

Note: "fair" indicates few or no clouds below 12,000 feet with no
significant weather and/or obstructions to visibility.

* = STATION THAT DOES NOT REPORT PRECIPITATION /E.G. RAIN...SNOW...ETC/
    THUNDER OR FOG.

PAZ002>004-007>009-013>016-020>023-029>032-290800-
WESTERN PENNSYLVANIA

CITY           SKY/WX    TMP DP  RH WIND       PRES   REMARKS
ERIE           MOCLDY    76  68  76 N10       30.20S
MEADVILLE      PTCLDY    69  67  93 CALM      30.23S
FRANKLIN*        N/A     66  63  88 CALM      30.24R
NEW CASTLE     PTSUNNY   68  67  96 CALM      30.22F FOG
BEAVER COUNTY  NOT AVBL
BUTLER*        NOT AVBL
PITTSBURGH INT PTCLDY    70  66  87 NE3       30.19F
PITTSBURGH     FOG       69  66  90 N3        30.19S VSB 1/4
INDIANA*       PTCLDY    66  66 100 CALM      30.22F
LATROBE        PTCLDY    66  66 100 CALM      30.21S
WASHINGTON CO* CLOUDY    63  61  94 CALM      30.20F VSB 1/4
$$

PAZ004>006-010>012-017>019-024>028-033>037-041-042-045-046-049>053-290800-
CENTRAL PENNSYLVANIA

CITY           SKY/WX    TMP DP  RH WIND       PRES   REMARKS
BRADFORD       CLOUDY    65  65 100 N3        30.24S
DUBOIS         MOCLDY    67  64  90 N7        30.21F
CLEARFIELD     NOT AVBL
JOHNSTOWN      CLEAR     65  64  97 W7        30.22F
ALTOONA        CLOUDY    66  66 100 SW3       30.19F
STATE COLLEGE  MOCLDY    66  65  99 NE3       30.18F
WILLIAMSPORT   CLOUDY    71  66  84 CALM      30.15F
SELINSGROVE    CLOUDY    69  69 100 CALM      30.15F
FT INDIANTOWN  PTCLDY    66  65  96 NE2       30.14F
CAPITAL CITY   PTCLDY    73  65  75 S5        30.13F
HARRISBURG     MOCLDY    73  68  84 SE6       30.13F
YORK           PTCLDY    71  64  78 CALM      30.14F
$$

PAZ038>040-043-044-047-048-054-055-060>062-067>071-290800-
EASTERN PENNSYLVANIA

CITY           SKY/WX    TMP DP  RH WIND       PRES   REMARKS
SCRANTON       MOCLDY    75  65  70 SW5       30.15F
MOUNT POCONO   PTCLDY    68  62  81 W10       30.19F
ALLENTOWN      PTCLDY    72  64  76 NW3       30.15F
QUAKERTOWN*    CLOUDY    72  64  78 CALM      30.17S
READING        PTCLDY    72  63  73 S3        30.14F
LANCASTER      PTCLDY    69  66  90 E3        30.15F
COATESVILLE    CLOUDY    68  64  88 SW3       30.19S
POTTSTOWN      PTCLDY    69  63  81 CALM      30.18F
BLUE BELL      PTCLDY    70  66  88 CALM      30.15F
DOYLESTOWN     PTCLDY    72  67  84 S3        30.15F
WILLOW GROVE   NOT AVBL
NORTH PHILA    PTCLDY    75  69  81 CALM      30.16F
PHILADELPHIA   MOCLDY    75  69  81 SW7       30.16F
$$




USA.gov is the U.S. government's official web portal to all federal, state and local government web resources and services.